Location: Stokes Fall Starparty
(41.2298°N, 74.7506°W)
Time: 01:51:54
(UTC-05:00)

Daily predictions for brighter satellites

Satellite Brightness Start Highest point End
(mag) Time Altitude Azimuth Time Altitude Azimuth Time Altitude Azimuth
ATLAS CENTAUR R/B 4.4 04:13:44 12° NE 04:13:44 12° NE 04:14:40 10° ENE
CZ-4C R/B 3.4 04:16:18 45° N 04:18:03 53° NE 04:25:49 10° SE
COSMOS 2455 4.4 04:26:35 25° N 04:26:35 25° N 04:29:02 10° NNE
COSMOS 2406 3.7 04:28:11 56° ENE 04:28:11 56° ENE 04:33:40 10° SE
Lacrosse 5 3.7 04:31:51 22° SSE 04:31:51 22° SSE 04:33:36 10° SSE
H-2A R/B 4.0 04:28:34 45° SW 04:31:25 56° S 05:20:57 10° ESE
Meteor 1-21 Rocket 4.4 04:35:35 73° E 04:35:35 73° E 04:41:08 10° SSE
Cosmos 2181 Rocket 4.5 04:35:54 10° N 04:42:06 59° E 04:48:10 10° SSE
Cosmos 1076 Rocket 4.5 04:46:31 46° E 04:46:31 46° E 04:50:27 10° SSE
Tiangong 2 3.9 04:52:38 19° ESE 04:52:38 19° ESE 04:53:51 10° E
Milstar 3 4.3 04:56:39 19° SSW 05:00:08 27° S 05:05:35 10° ESE
IDEFIX/ARIANE 42P 3.2 04:55:58 10° NNE 05:01:10 56° E 05:06:19 10° S
GPS 2-04 Rocket1 4.0 05:05:37 34° SSE 05:05:37 34° SSE 05:09:24 10° ESE
EO 1 Del DPAF 4.5 05:02:12 10° SE 05:05:47 40° ENE 05:07:26 26° NNE
Cosmos 1140 Rocket 3.7 05:10:17 51° NNW 05:10:17 51° NNW 05:14:28 10° NNE
USA 234 4.3 05:05:16 10° NE 05:10:38 28° NNW 05:11:28 27° NNW
Cosmos 1766 Rocket 4.3 05:08:57 12° N 05:12:56 51° E 05:17:14 10° SSE
Cosmos 1315 Rocket 2.8 05:14:38 78° NE 05:14:47 81° E 05:18:48 10° SSE
Landsat 4 3.7 05:11:35 10° SSE 05:15:23 80° ENE 05:15:24 80° ENE
Okean 3 Rocket 3.4 05:15:41 77° W 05:15:46 77° W 05:20:08 10° S
Cosmos 1954 Rocket 4.5 05:20:25 41° NNW 05:20:25 41° NNW 05:24:25 10° N
COSMO-SKYMED 1 2.4 05:15:15 10° SSE 05:19:35 83° WSW 05:20:51 46° NNW
Cosmos 2278 Rocket 2.4 05:14:12 10° SSW 05:19:49 70° ESE 05:25:27 10° NNE
PAYLOAD A 3.8 05:15:23 10° NNE 05:20:18 83° ESE 05:25:02 10° SSW
Feng Yun 1-1 Rocket 4.1 05:14:57 10° NNE 05:20:24 90° SSE 05:25:47 10° SSW
Cosmos 1850 Rocket 4.0 05:15:28 10° SSW 05:20:43 83° ESE 05:26:03 10° NNE
Cosmos 371 Rocket 3.3 05:19:17 29° NNW 05:21:50 81° ENE 05:26:43 10° SSE
Okean-O 2.5 05:20:02 10° NNE 05:24:30 87° WNW 05:28:55 10° SSW
USA 229 DEB 4.2 05:19:09 10° SSW 05:25:44 58° ESE 05:32:29 10° NE
USA 229 4.3 05:19:16 10° SSW 05:25:50 58° ESE 05:32:34 10° NE
NOAA 6 3.9 05:22:30 10° N 05:27:41 72° WNW 05:32:50 10° SSW
Cosmos 1709 Rocket 4.2 05:22:58 10° SSW 05:28:58 46° WNW 05:35:06 10° N
CENTAUR R/B 4.3 05:30:41 16° NNW 05:31:34 16° NNW 05:35:49 10° NNE
Meteor 2-8 Rocket 4.4 05:25:36 10° N 05:31:48 88° E 05:37:55 10° S
Cosmos 1844 Rocket 3.3 05:34:33 33° NW 05:34:33 33° NW 05:39:23 10° N
DELTA 2 R/B (1) 4.0 05:34:36 34° WSW 05:36:40 50° SSW 05:42:02 10° SE
SL-27 R/B 3.8 05:34:17 13° N 05:37:16 40° ENE 05:40:44 10° SE
Cosmos 2184 Rocket 4.0 05:34:29 10° S 05:40:45 89° E 05:47:06 10° N
Abrixas rocket 2.7 05:42:02 41° NNW 05:42:36 47° NNE 05:45:46 10° E
Cosmos 1328 3.7 05:40:58 25° NNW 05:43:11 62° W 05:47:07 10° S
SJ-12 4.0 05:45:29 10° NNE 05:49:38 80° ESE 05:53:45 10° S
Cosmos 1570 Rocket 3.9 05:45:20 13° NNW 05:49:59 72° WSW 05:55:10 10° S
Meteor 2-19 Rocket 4.3 05:44:27 10° S 05:50:31 80° W 05:56:36 10° N
Cosmos 1844 4.4 05:49:36 25° W 05:51:41 32° WNW 05:56:47 10° N
ATLAS CENTAUR R/B 1.3 05:50:01 23° NNW 05:52:33 87° ENE 05:56:55 10° SSE
Meteor 1-16 Rocket 4.2 05:48:52 10° SSW 05:54:22 56° WNW 05:59:46 10° N
Cosmos-2242 3.2 05:53:17 10° SSW 05:57:28 48° WNW 06:01:38 10° N
FAST Rocket 4.1 05:56:58 10° SSW 05:59:36 60° W 06:03:04 10° N
Cosmos 1908 4.1 05:55:52 10° S 05:59:41 54° E 06:03:32 10° NNE
CZ-2C R/B 2.3 05:55:26 10° N 05:59:56 55° WNW 06:04:30 10° SSW
Shenzhou-11 Module 2.0 05:59:45 38° WNW 06:00:40 63° N 06:03:40 10° ENE
Nadezhda 3 Rocket 4.4 05:54:20 10° N 06:00:41 67° E 06:06:56 10° SSE
Meteor 1-11 4.2 05:55:10 10° NNW 06:00:54 68° W 06:06:39 10° S
Cosmos 2082 Rocket 2.6 05:56:27 10° NNW 06:02:02 62° ENE 06:07:35 10° SE
Cosmos 1408 Rocket 3.8 06:01:13 10° NNW 06:05:24 46° W 06:09:36 10° SSW
Cosmos 2058 3.0 06:02:19 10° N 06:06:34 84° E 06:10:45 10° S
CZ-4C R/B 3.5 06:01:32 18° WNW 06:06:37 39° WSW 06:13:55 10° S
Cosmos 1726 3.8 06:06:28 10° SSE 06:09:54 36° E 06:13:22 10° NNE
Cosmos 1703 3.2 06:06:17 10° NNW 06:10:13 66° W 06:14:07 10° S
Cosmos 1626 2.7 06:08:34 12° NNW 06:11:37 36° W 06:15:03 10° SSW
COSMOS 2406 4.4 06:10:18 18° WNW 06:11:57 20° W 06:15:58 10° SW
Cosmos 2074 Rocket 4.2 06:10:12 10° SSW 06:16:09 47° WNW 06:22:07 10° N
Cosmos 2151 2.9 06:12:51 10° N 06:17:11 79° W 06:21:28 10° S
Meteor 2-1 Rocket 4.2 06:12:08 10° S 06:17:38 88° W 06:23:15 10° N
Cosmos 1500 Rocket 3.6 06:13:31 10° N 06:17:58 87° E 06:22:20 10° S
Ariane Rocket 3.7 06:13:17 10° NNE 06:18:21 60° ESE 06:23:23 10° S
NOSS 3-1 (C) 3.7 06:14:18 10° SSW 06:19:53 70° ESE 06:26:11 10° NE
SJ-7 4.4 06:15:44 10° N 06:20:01 83° WNW 06:24:15 10° SSW
Cosmos 304 Rocket 3.7 06:15:15 10° NNW 06:20:03 80° WSW 06:24:51 10° SSE
Radarsat Rocket 4.5 06:16:17 10° N 06:22:30 41° WNW 06:28:08 10° SW
AQUARIUS 4.3 06:19:14 10° NNE 06:23:45 81° ESE 06:28:15 10° S
Cosmos 2297 3.7 06:19:58 10° SSW 06:25:43 85° WNW 06:31:29 10° NNE
Tiangong 2 1.0 06:24:55 13° W 06:27:39 81° N 06:30:52 10° ENE
CZ-4 R/B 1.9 06:23:47 10° NNE 06:27:54 65° ESE 06:31:52 10° S
Cosmos 1484 Rocket 2.7 06:26:04 10° N 06:29:43 56° WNW 06:33:24 10° SSW
Cosmos 1743 Rocket 3.7 06:27:41 10° NNW 06:31:52 49° W 06:36:03 10° SSW
Cosmos 1833 Rocket 2.7 06:27:02 10° NNW 06:32:41 71° WSW 06:38:17 10° SSE
SAR-Lupe-3 4.5 06:31:13 10° S 06:34:48 77° WSW 06:38:24 10° NNW
Cosmos 2221 2.7 06:31:34 10° S 06:35:48 76° E 06:40:06 10° N
IDEFIX/ARIANE 42P 3.8 06:36:37 10° NNW 06:40:19 20° WNW 06:44:00 10° WSW
MSX 4.5 06:36:54 10° N 06:41:57 33° WNW 06:46:58 10° SW
USA 81 4.0 06:37:15 10° N 06:42:32 78° W 06:47:47 10° S
GPS 2-04 Rocket1 4.0 06:41:00 10° WSW 06:44:54 37° S 06:48:52 10° ESE
Cosmos 540 Rocket 4.2 06:46:28 10° N 06:51:31 55° ENE 06:56:30 10° SE
Cosmos 2341 Rocket 4.0 06:45:49 10° SSW 06:51:59 67° W 06:58:11 10° N
